[[{"header":{"parameterUnit":"m.s-1","parameterCategory":1,"la1":30.2991,"la2":30.254,"lo1":-89.0895,"lo2":-89.0444,"dy":0.0017,"dx":0.0017,"nx":28,"ny":28,"refTime":"2025-03-28T09:00:00:Z","depth":0,"parameterNumber":2,"parameterNumberName":"U-component_of_WINDS"},"data":[0,0,0,0,0,0,0,0,0,0,0,0,0,0,0,0,0,0,0,0,0,0,0,0,0,0,0,0,0,0,0,0,0,0,0,0,0,0,0,0,0,0,0,0,0,0,0,0,0,0,0,0,0,0,0,0,0,0,-6.1243,-6.1245,0,-6.1478,-6.148,-6.1483,-6.1538,-6.1536,-6.1534,-6.1533,-6.1771,-6.1778,-6.1786,0,0,0,0,0,0,0,0,0,0,0,0,0,-6.084,-6.0847,-6.1243,-6.1246,-6.1249,-6.1477,-6.148,-6.1484,-6.1538,-6.1536,-6.1534,-6.1532,-6.1768,-6.1777,-6.1787,0,0,0,0,0,0,0,0,0,0,0,0,0,-6.1038,-6.0849,-6.1242,-6.1303,-6.1311,-6.1477,-6.1481,-6.1485,-6.1538,-6.1536,-6.1534,-6.1531,-6.1765,-6.1776,-6.1788,-6.1908,0,0,-6.1824,-6.1829,0,0,0,0,0,0,0,0,-6.1027,-6.1053,-6.1291,-6.1299,-6.1308,-6.1476,-6.1426,-6.1626,-6.1539,-6.1452,-6.1533,-6.153,-6.1674,-6.1693,-6.1743,-6.1919,-6.193,-6.1825,-6.1832,-6.1837,-6.184,0,0,0,0,0,0,0,-6.1013,-6.1043,-6.1336,-6.1295,-6.1305,-6.1318,-6.1344,-6.1464,-6.1574,-6.1459,-6.1464,-6.1491,-6.1678,-6.1731,-6.1748,-6.1933,-6.1824,-6.1835,-6.1842,-6.1847,-6.2221,-6.2223,0,0,0,0,0,0,-6.0989,-6.1032,-6.1328,-6.1343,-6.1159,-6.1328,-6.1356,-6.1425,-6.1572,-6.1593,-6.1493,-6.1493,-6.1712,-6.1735,-6.1757,-6.1907,-6.1837,-6.1848,-6.1854,-6.2218,-6.2221,-6.2224,0,0,0,0,0,0,-6.098,-6.1015,-6.1319,-6.1189,-6.1228,-6.1337,-6.1413,-6.143,-6.1483,-6.1598,-6.1617,-6.1527,-6.1711,-6.1741,-6.1871,-6.1916,-6.1853,-6.1864,-6.2214,-6.2219,-6.2223,-6.2208,0,0,0,0,0,0,-6.0968,-6.1012,-6.1059,-6.1189,-6.1235,-6.1428,-6.1416,-6.1437,-6.1504,-6.1506,-6.1635,-6.1654,-6.1712,-6.1853,-6.1882,-6.1931,-6.1873,-6.2211,-6.2216,-6.2222,-6.2205,-6.2212,-6.2217,0,0,0,0,0,-6.0954,-6.1044,-6.1061,-6.1096,-6.1296,-6.1431,-6.1457,-6.1523,-6.1507,-6.1555,-6.1629,-6.165,-6.1907,-6.1866,-6.1899,-6.1952,-6.2208,-6.2215,-6.2221,-6.2202,-6.221,-6.2217,0,0,0,0,0,0,-6.0915,-6.1063,-6.1082,-6.1218,-6.1312,-6.144,-6.1502,-6.1529,-6.1628,-6.1626,-6.1702,-6.1731,-6.1856,-6.1918,-6.1869,-6.2077,-6.2057,-6.2071,-6.2031,-6.204,-6.2046,-6.2027,-6.1883,0,0,0,0,0,-6.0923,-6.102,-6.1144,-6.1252,-6.1298,-6.1392,-6.1453,-6.1496,-6.1596,-6.1635,-6.1719,-6.1814,-6.1916,-6.1982,-6.2083,-6.2216,-6.2244,-6.2269,-6.2275,-6.2279,-6.2289,-6.2363,-6.2376,-6.2246,-6.2246,-6.2246,0,0,-6.0938,-6.1031,-6.1088,-6.1246,-6.1324,-6.1423,-6.1425,-6.1529,-6.1603,-6.1651,-6.1778,-6.1843,-6.1955,-6.2086,-6.2149,-6.2142,-6.2332,-6.2288,-6.229,-6.2298,-6.2371,-6.2384,-6.2394,-6.225,-6.225,-6.2249,0,0,-6.1017,-6.1098,-6.1196,-6.1275,-6.1393,-6.1455,-6.1479,-6.1604,-6.1649,-6.1779,-6.1817,-6.1906,-6.2081,-6.2159,-6.2221,-6.2332,-6.2354,-6.2363,-6.2393,-6.2465,-6.2475,-6.2484,-6.2522,-6.2535,-6.2373,-6.2373,-6.2373,0,-6.1021,-6.1173,-6.1243,-6.1347,-6.1415,-6.1465,-6.1564,-6.1637,-6.1781,-6.1827,-6.1818,-6.2039,-6.2118,-6.2268,-6.2295,-6.2345,-6.2373,-6.2347,-6.2468,-6.2478,-6.2488,-6.2525,-6.2539,-6.2373,-6.2373,-6.2373,-6.2373,0,-6.1172,-6.1276,-6.1341,-6.1481,-6.1557,-6.1658,-6.1743,-6.1812,-6.1849,-6.1912,-6.2043,-6.214,-6.2261,-6.23,-6.2337,-6.2456,-6.2448,-6.2453,-6.2434,-6.2499,-6.2535,-6.255,-6.2373,-6.2373,-6.2373,-6.2373,0,0,-6.123,-6.1409,-6.1431,-6.1495,-6.163,-6.1712,-6.1815,-6.1935,-6.1991,-6.209,-6.2178,-6.2326,-6.2332,-6.2402,-6.2449,-6.2512,-6.2592,-6.2509,-6.2512,-6.2519,-6.2728,-6.2722,-6.2737,-6.2609,-6.2612,-6.2614,-6.2718,0,-6.1324,-6.1511,-6.1578,-6.1731,-6.1828,-6.1878,-6.1968,-6.206,-6.2123,-6.2214,-6.2283,-6.2386,-6.2386,-6.2429,-6.2494,-6.2568,-6.2634,-6.2562,-6.269,-6.2693,-6.2657,-6.2757,-6.2751,-6.2844,-6.2733,-6.2735,-6.2737,0,-6.1458,-6.1559,-6.1722,-6.1846,-6.1889,-6.1969,-6.2084,-6.2171,-6.2277,-6.2318,-6.2398,-6.244,-6.255,-6.2526,-6.2678,-6.2627,-6.2684,-6.2729,-6.2734,-6.2746,-6.2717,-6.2769,-6.2875,-6.2888,-6.276,-6.2759,-6.2757,0,-6.1482,-6.166,-6.178,-6.1834,-6.1981,-6.2036,-6.21,-6.2203,-6.2271,-6.2372,-6.2416,-6.2528,-6.2589,-6.2675,-6.2746,-6.2723,-6.2891,-6.2873,-6.2926,-6.2925,-6.2957,-6.2954,-6.3071,-6.2997,-6.2997,-6.2997,-6.2997,0,-6.1579,-6.1676,-6.1793,-6.1867,-6.1977,-6.2054,-6.2162,-6.2229,-6.2321,-6.2408,-6.2458,-6.2539,-6.2629,-6.2722,-6.2778,-6.2894,-6.2922,-6.2957,-6.2971,-6.2952,-6.2947,-6.2988,-6.2982,-6.3001,-6.3,-6.2999,-6.2999,0,-6.1624,-6.1706,-6.184,-6.1969,-6.2004,-6.208,-6.219,-6.2263,-6.2329,-6.2439,-6.2469,-6.2571,-6.2683,-6.2763,-6.2907,-6.2945,-6.3069,-6.3083,-6.3033,-6.3039,-6.3087,-6.3081,-6.3233,-6.3257,-6.3169,-6.3169,-6.317,0,-6.1679,-6.1755,-6.1893,-6.1955,-6.2019,-6.2119,-6.2189,-6.2268,-6.2339,-6.2466,-6.2523,-6.2639,-6.2735,-6.291,-6.2997,-6.3107,-6.3123,-6.3169,-6.314,-6.3118,-6.3122,-6.3116,-6.3123,-6.3172,-6.3173,-6.3174,-6.3174,0,-6.1767,-6.1805,-6.1904,-6.2017,-6.2099,-6.2192,-6.2286,-6.2334,-6.243,-6.2507,-6.2622,-6.2697,-6.2844,-6.2957,-6.3076,-6.3141,-6.3173,-6.3183,-6.3201,-6.3181,-6.3148,-6.3165,-6.3042,-6.3178,-6.3178,-6.3178,-6.3177,-6.3177,-6.1818,-6.1888,-6.1996,-6.2105,-6.2184,-6.227,-6.2346,-6.2421,-6.2519,-6.2645,-6.2686,-6.2805,-6.291,-6.3073,-6.314,-6.3234,-6.3232,-6.3258,-6.3264,-6.3269,-6.3267,-6.3135,-6.3256,-6.3256,-6.3256,-6.3256,-6.3256,0,-6.1908,-6.198,-6.208,-6.221,-6.2295,-6.232,-6.2425,-6.2494,-6.2599,-6.2694,-6.2788,-6.292,-6.3031,-6.3127,-6.3242,-6.3298,-6.3316,-6.3325,-6.3321,-6.3335,-6.3263,-6.3235,-6.3309,-6.3309,-6.3309,-6.3309,-6.3309,-6.3309,-6.1965,-6.2084,-6.2134,-6.2293,-6.2365,-6.2483,-6.254,-6.262,-6.2697,-6.2842,-6.2935,-6.2997,-6.3093,-6.3215,-6.3318,-6.3343,-6.3382,-6.3388,-6.3416,-6.3347,-6.334,-6.3334,-6.3308,-6.3396,-6.3396,-6.3481,-6.3482,-6.3482]},{"header":{"parameterUnit":"m.s-1","parameterCategory":1,"la1":30.2991,"la2":30.254,"lo1":-89.0895,"lo2":-89.0444,"dy":0.0017,"dx":0.0017,"nx":28,"ny":28,"refTime":"2025-03-28T09:00:00:Z","depth":0,"parameterNumber":3,"parameterNumberName":"V-component_of_WINDS"},"data":[0,0,0,0,0,0,0,0,0,0,0,0,0,0,0,0,0,0,0,0,0,0,0,0,0,0,0,0,0,0,0,0,0,0,0,0,0,0,0,0,0,0,0,0,0,0,0,0,0,0,0,0,0,0,0,0,0,0,7.0746,7.0747,0,7.0868,7.0869,7.087,7.0855,7.0853,7.0851,7.0849,7.0967,7.0971,7.0976,0,0,0,0,0,0,0,0,0,0,0,0,0,7.0495,7.0499,7.0746,7.0747,7.0749,7.0867,7.0869,7.0871,7.0855,7.0853,7.0851,7.0848,7.0965,7.0971,7.0977,0,0,0,0,0,0,0,0,0,0,0,0,0,7.0609,7.0501,7.0745,7.0756,7.0758,7.0867,7.0869,7.0871,7.0856,7.0853,7.085,7.0847,7.0963,7.097,7.0977,7.1082,0,0,7.1,7.1003,0,0,0,0,0,0,0,0,7.0602,7.0618,7.0753,7.0755,7.0758,7.0843,7.0823,7.0942,7.0857,7.0818,7.0849,7.0846,7.0927,7.0938,7.0967,7.1087,7.1092,7.1001,7.1005,7.1008,7.1011,0,0,0,0,0,0,0,7.0594,7.0612,7.0794,7.0755,7.0758,7.0752,7.0765,7.0846,7.0888,7.0822,7.0821,7.0836,7.0928,7.0959,7.0969,7.1094,7.1001,7.1007,7.1012,7.1015,7.1309,7.1312,0,0,0,0,0,0,7.0585,7.0606,7.079,7.0797,7.0671,7.0759,7.0774,7.0819,7.0887,7.0895,7.0838,7.0835,7.0948,7.0961,7.0973,7.1102,7.1008,7.1015,7.102,7.1306,7.131,7.1314,0,0,0,0,0,0,7.0579,7.0601,7.0785,7.0702,7.0725,7.0767,7.0817,7.0823,7.0854,7.09,7.0906,7.0863,7.0946,7.0963,7.1056,7.1106,7.1019,7.1025,7.1302,7.1307,7.1312,7.1359,0,0,0,0,0,0,7.0572,7.0599,7.0641,7.0703,7.0729,7.0868,7.082,7.0827,7.0868,7.0864,7.0924,7.0931,7.0945,7.1045,7.1064,7.1114,7.1031,7.1298,7.1304,7.131,7.1353,7.1365,7.1375,0,0,0,0,0,7.0563,7.0647,7.0643,7.0665,7.0782,7.087,7.0885,7.0902,7.0872,7.0913,7.0943,7.093,7.1097,7.1055,7.1075,7.1129,7.1295,7.1302,7.131,7.1348,7.1363,7.1375,0,0,0,0,0,0,7.0586,7.0655,7.0651,7.0758,7.0809,7.0868,7.092,7.0916,7.0974,7.0968,7.0984,7.0998,7.1093,7.112,7.1071,7.1235,7.1192,7.1204,7.1214,7.1228,7.1239,7.1231,7.1037,0,0,0,0,0,7.0604,7.0673,7.0728,7.0817,7.0843,7.0877,7.0916,7.0925,7.0977,7.0998,7.1034,7.1083,7.1148,7.1189,7.125,7.1357,7.137,7.1404,7.1415,7.1424,7.1435,7.1495,7.1511,7.1339,7.1338,7.1338,0,0,7.0641,7.0687,7.0728,7.0823,7.0863,7.0932,7.0895,7.0969,7.102,7.1008,7.11,7.1128,7.1184,7.1286,7.1332,7.1311,7.1485,7.1434,7.1441,7.1446,7.1504,7.1521,7.1535,7.1344,7.1343,7.1342,0,0,7.0744,7.0785,7.0865,7.0908,7.0971,7.0994,7.1013,7.1073,7.1093,7.1186,7.1179,7.1239,7.1348,7.1389,7.1425,7.1546,7.1537,7.1565,7.1623,7.1682,7.1695,7.1707,7.1752,7.1768,7.1575,7.1576,7.1576,0,7.0781,7.0887,7.0906,7.0982,7.1024,7.102,7.11,7.1139,7.1218,7.1246,7.1223,7.1363,7.1399,7.1512,7.1542,7.157,7.1592,7.1559,7.1692,7.1705,7.1716,7.1759,7.1776,7.1579,7.1578,7.1578,7.1578,0,7.093,7.1004,7.106,7.1141,7.1189,7.1266,7.1296,7.1342,7.1347,7.1372,7.1467,7.1512,7.1584,7.1611,7.1614,7.1724,7.1709,7.1689,7.1646,7.1736,7.1776,7.1793,7.1583,7.1582,7.1581,7.158,0,0,7.105,7.1142,7.1163,7.12,7.1271,7.1327,7.1404,7.1478,7.1517,7.1572,7.1637,7.1732,7.1714,7.1754,7.1763,7.1814,7.191,7.1788,7.1789,7.181,7.2035,7.2051,7.207,7.1904,7.1908,7.191,7.2031,0,7.1161,7.1301,7.1322,7.1445,7.1514,7.1512,7.158,7.163,7.1655,7.1716,7.1743,7.1811,7.1782,7.1807,7.1857,7.1888,7.1956,7.1879,7.1965,7.1968,7.1952,7.2091,7.2107,7.2219,7.2047,7.2049,7.2051,0,7.1309,7.1372,7.1503,7.1567,7.1597,7.1657,7.1727,7.1786,7.1842,7.1857,7.1904,7.1907,7.1986,7.194,7.205,7.1998,7.2034,7.2054,7.2059,7.2068,7.2015,7.2104,7.2255,7.2272,7.2076,7.2074,7.2072,0,7.1385,7.1502,7.1597,7.1628,7.1704,7.1748,7.1781,7.1835,7.1878,7.1938,7.1967,7.2034,7.2071,7.2123,7.2144,7.2108,7.2253,7.2208,7.2267,7.2267,7.2298,7.2296,7.2458,7.232,7.232,7.2319,7.2319,0,7.1507,7.1588,7.1633,7.1691,7.1781,7.1803,7.1892,7.1923,7.1971,7.2035,7.2036,7.2094,7.2118,7.2181,7.2197,7.2287,7.2303,7.2317,7.232,7.2318,7.2316,7.2342,7.2335,7.2324,7.2323,7.2322,7.2321,0,7.1608,7.1641,7.1744,7.1809,7.1827,7.1891,7.1946,7.2002,7.2028,7.2108,7.2128,7.2169,7.2243,7.2269,7.2357,7.2369,7.2473,7.2469,7.2455,7.2456,7.2515,7.251,7.2699,7.2726,7.257,7.2571,7.2572,0,7.1684,7.1747,7.182,7.1865,7.1901,7.1971,7.2016,7.204,7.2087,7.2158,7.2206,7.228,7.2341,7.2459,7.2495,7.2563,7.2562,7.2623,7.2571,7.2568,7.2564,7.2561,7.2568,7.2633,7.2635,7.2636,7.2637,0,7.1817,7.1832,7.1898,7.1972,7.2028,7.2086,7.2142,7.2177,7.221,7.2262,7.234,7.2387,7.248,7.2554,7.2624,7.2656,7.2653,7.2653,7.2671,7.2669,7.2659,7.2667,7.2483,7.2649,7.2648,7.2647,7.2646,7.2646,7.1909,7.1966,7.2028,7.2103,7.2149,7.2202,7.2259,7.2294,7.2359,7.2439,7.2448,7.2532,7.2588,7.2683,7.2719,7.2783,7.2766,7.2791,7.2798,7.2804,7.2809,7.2649,7.2796,7.2795,7.2795,7.2795,7.2795,0,7.2044,7.2084,7.2153,7.2234,7.2294,7.2287,7.235,7.2399,7.2474,7.2528,7.2589,7.2679,7.2751,7.2794,7.2866,7.291,7.291,7.2928,7.2925,7.2933,7.282,7.2798,7.2927,7.2927,7.2927,7.2927,7.2927,7.2927,7.2121,7.2218,7.2239,7.2359,7.2397,7.2482,7.2519,7.2568,7.2611,7.2713,7.2774,7.2802,7.2852,7.2928,7.2994,7.3005,7.3032,7.3052,7.3061,7.2954,7.2941,7.2928,7.2908,7.3057,7.3057,7.3169,7.317,7.3171]}]]